Date String (YYYY-MM-DD hh:mm:ss) UTC,Instrument flags,Ambient pressure (hPa),Sample flow (lpm),Bypass flow (lpm),Sample temperature (°C),Ambient temperature (°C),ASC tube jacket temperature (°C),LED temperature (°C),Box temperature (°C),Sample RH (%),Span deviation,Mass concentration (μg/m³),Mass concentration (μg/m³),Mass concentration (μg/m³)
DateTimeUTC,F1_M11,P_M11,Q1_M11,Q2_M11,T1_M11,T2_M11,T3_M11,T4_M11,T5_M11,U1_M11,ZSPAN_M11,X0_M11,X2_M11,X1_M11
2021-09-11 06:00:00,,0828.3,4.98,0.00,29.5,28.4,00.0,38.4,31.3,10.3,0001.6,0014.76,0010.23,0009.62
2021-09-11 06:01:00,,0828.3,5.01,0.00,29.5,28.5,00.0,38.5,31.3,10.3,0001.4,0015.27,0010.21,0009.61
2021-09-11 06:02:00,,0828.3,5.00,0.00,29.5,28.6,00.0,38.5,31.4,10.3,0001.5,0015.13,0010.19,0009.59
2021-09-11 06:03:00,,0828.3,4.99,0.00,29.6,28.7,00.0,38.5,31.4,10.2,0001.5,0015.05,0010.15,0009.57
2021-09-11 06:04:00,,0828.3,5.00,0.00,29.6,28.7,00.0,38.5,31.4,10.1,0001.6,0015.10,0010.15,0009.57
2021-09-11 06:05:00,,0828.3,5.01,0.00,29.6,27.1,00.0,38.5,31.1,10.1,0001.9,0014.36,0010.10,0009.56
2021-09-11 06:06:00,,0828.3,5.01,0.00,29.4,26.3,00.0,38.5,30.8,10.3,0001.9,0014.44,0010.10,0009.57
2021-09-11 06:07:00,,0828.3,5.00,0.00,29.4,26.5,00.0,38.5,30.8,10.4,0001.8,0014.92,0010.12,0009.58
2021-09-11 06:08:00,,0828.3,4.99,0.00,29.3,26.9,00.0,38.5,30.9,10.6,0001.9,0015.03,0010.15,0009.59
2021-09-11 06:09:00,,0828.3,5.00,0.00,29.3,27.2,00.0,38.4,30.9,10.4,0001.7,0014.98,0010.13,0009.59
2021-09-11 06:10:00,,0828.3,5.00,0.00,29.3,27.6,00.0,38.4,31.0,10.3,0001.7,0015.09,0010.15,0009.60
2021-09-11 06:11:00,,0828.3,5.00,0.00,29.4,27.8,00.0,38.4,31.1,10.3,0001.8,0014.90,0010.13,0009.59
2021-09-11 06:12:00,,0828.3,4.99,0.00,29.4,28.0,00.0,38.4,31.2,10.4,0001.8,0015.13,0010.15,0009.59
2021-09-11 06:13:00,,0828.4,5.01,0.00,29.4,28.2,00.0,38.4,31.2,10.5,0001.8,0015.27,0010.17,0009.59
2021-09-11 06:14:00,,0828.3,5.00,0.00,29.5,28.4,00.0,38.5,31.3,10.5,0001.8,0015.36,0010.20,0009.59
2021-09-11 06:15:00,,0828.4,5.01,0.00,29.5,28.5,00.0,38.5,31.3,10.4,0001.7,0015.45,0010.20,0009.59
2021-09-11 06:16:00,,0828.4,5.00,0.00,29.6,28.6,00.0,38.5,31.4,10.3,0001.6,0015.55,0010.19,0009.59
2021-09-11 06:17:00,,0828.4,5.00,0.00,29.6,28.7,00.0,38.5,31.4,10.2,0001.5,0015.53,0010.18,0009.59
2021-09-11 06:18:00,,0828.4,5.00,0.00,29.6,28.8,00.0,38.6,31.5,10.2,0001.7,0015.12,0010.16,0009.58
2021-09-11 06:19:00,,0828.4,5.01,0.00,29.7,28.0,00.0,38.6,31.3,10.1,0001.5,0015.59,0010.16,0009.56
2021-09-11 06:20:00,,0828.4,5.00,0.00,29.5,26.4,00.0,38.6,30.9,10.2,0001.7,0015.86,0010.14,0009.53
2021-09-11 06:21:00,,0828.4,5.00,0.00,29.4,26.4,00.0,38.5,30.8,10.2,0001.7,0015.77,0010.09,0009.49
2021-09-11 06:22:00,,0828.5,5.00,0.00,29.3,26.7,00.0,38.5,30.8,10.3,0001.9,0015.67,0010.08,0009.48
2021-09-11 06:23:00,,0828.5,5.00,0.00,29.3,27.1,00.0,38.5,30.9,10.3,0001.9,0015.07,0010.07,0009.47
2021-09-11 06:24:00,,0829.0,5.01,0.00,29.3,27.4,00.0,38.5,31.0,10.5,0001.8,0014.99,0010.04,0009.47
2021-09-11 06:25:00,,0829.0,4.99,0.00,29.4,27.7,00.0,38.5,31.1,11.4,0001.9,0014.89,0010.03,0009.46
2021-09-11 06:26:00,,0829.0,5.00,0.00,29.4,28.0,00.0,38.5,31.2,11.3,0001.9,0015.17,0010.01,0009.42
2021-09-11 06:27:00,,0829.1,5.01,0.00,29.4,28.2,00.0,38.5,31.2,11.4,0002.0,0015.35,0010.01,0009.40
2021-09-11 06:28:00,,0829.1,4.99,0.00,29.5,28.4,00.0,38.5,31.3,11.6,0002.3,0015.21,0009.99,0009.38
2021-09-11 06:29:00,,0828.8,5.01,0.00,29.5,28.5,00.0,38.5,31.3,11.2,0002.3,0015.27,0009.99,0009.39
2021-09-11 06:30:00,,0828.7,5.00,0.00,29.5,28.6,00.0,38.5,31.4,11.4,0002.3,0014.86,0010.01,0009.42
2021-09-11 06:31:00,,0828.6,5.00,0.00,29.6,28.7,00.0,38.5,31.4,11.0,0002.1,0014.79,0010.14,0009.49
2021-09-11 06:32:00,,0828.6,4.99,0.00,29.6,28.8,00.0,38.6,31.5,10.9,0001.7,0015.05,0010.28,0009.59
2021-09-11 06:33:00,,0828.6,5.01,0.00,29.7,28.9,00.0,38.6,31.5,10.9,0001.5,0015.44,0010.41,0009.67
2021-09-11 06:34:00,,0828.9,4.99,0.00,29.7,27.9,00.0,38.6,31.3,11.0,0001.4,0015.97,0010.53,0009.75
2021-09-11 06:35:00,,0828.8,5.00,0.00,29.5,25.8,00.0,38.6,30.7,11.1,0001.3,0016.75,0010.70,0009.84
2021-09-11 06:36:00,,0828.7,5.00,0.00,29.3,25.3,00.0,38.6,30.6,11.3,0001.2,0018.47,0010.81,0009.93
2021-09-11 06:37:00,,0828.7,5.01,0.00,29.3,25.8,00.0,38.5,30.7,11.3,0001.2,0018.51,0010.89,0010.02
2021-09-11 06:38:00,,0829.1,5.00,0.00,29.2,26.3,00.0,38.5,30.7,11.4,0000.8,0018.64,0010.99,0010.09
2021-09-11 06:39:00,,0829.1,5.01,0.00,29.2,26.8,00.0,38.4,30.8,11.3,0000.4,0018.94,0011.12,0010.16
2021-09-11 06:40:00,,0829.0,4.99,0.00,29.2,27.2,00.0,38.4,30.9,11.4,0000.2,0019.07,0011.24,0010.21
2021-09-11 06:41:00,,0828.8,5.00,0.00,29.2,27.5,00.0,38.4,31.0,11.3,0000.3,0019.37,0011.36,0010.28
2021-09-11 06:42:00,,0828.9,5.01,0.00,29.3,27.7,00.0,38.4,31.0,11.3,0000.4,0019.66,0011.44,0010.34
2021-09-11 06:43:00,,0829.1,4.99,0.00,29.3,28.0,00.0,38.4,31.1,11.3,0000.8,0019.87,0011.54,0010.38
2021-09-11 06:44:00,,0829.2,5.00,0.00,29.3,28.1,00.0,38.4,31.2,11.3,0000.6,0021.16,0011.65,0010.44
2021-09-11 06:45:00,,0829.2,5.00,0.00,29.4,28.3,00.0,38.4,31.2,11.3,0000.8,0021.62,0011.74,0010.50
2021-09-11 06:46:00,,0829.2,5.00,0.00,29.4,28.4,00.0,38.4,31.2,11.2,0001.0,0021.74,0011.81,0010.55
2021-09-11 06:47:00,,0829.2,5.00,0.00,29.5,28.5,00.0,38.4,31.3,11.1,0000.7,0020.45,0011.96,0010.63
2021-09-11 06:48:00,,0829.2,5.01,0.00,29.5,28.6,00.0,38.5,31.3,11.1,0000.8,0020.78,0012.13,0010.69
2021-09-11 06:49:00,,0829.1,4.98,0.00,29.5,28.6,00.0,38.5,31.4,11.0,0000.9,0021.38,0012.25,0010.72
2021-09-11 06:50:00,,0829.2,5.01,0.00,29.6,28.7,00.0,38.5,31.4,10.9,0001.3,0021.68,0012.30,0010.76
2021-09-11 06:51:00,,0829.1,5.00,0.00,29.6,28.8,00.0,38.5,31.5,10.8,0001.3,0021.93,0012.35,0010.78
2021-09-11 06:52:00,,0829.0,5.00,0.00,29.7,28.8,00.0,38.6,31.5,10.8,0001.3,0022.46,0012.37,0010.78
2021-09-11 06:53:00,,0828.7,5.00,0.00,29.7,28.8,00.0,38.6,31.5,10.8,0001.2,0022.99,0012.39,0010.79
2021-09-11 06:54:00,,0828.7,5.01,0.00,29.7,27.3,00.0,38.6,31.2,10.9,0001.1,0024.61,0012.41,0010.79
2021-09-11 06:55:00,,0828.8,4.99,0.00,29.5,26.3,00.0,38.6,30.9,10.9,0001.1,0024.49,0012.37,0010.78
2021-09-11 06:56:00,,0829.1,5.01,0.00,29.4,26.5,00.0,38.6,30.9,11.0,0001.1,0025.16,0012.36,0010.72
2021-09-11 06:57:00,,0829.3,5.00,0.00,29.4,26.8,00.0,38.5,31.0,11.0,0001.1,0024.71,0012.20,0010.63
2021-09-11 06:58:00,,0829.1,5.00,0.00,29.4,27.2,00.0,38.5,31.0,10.9,0001.4,0024.23,0011.99,0010.51
2021-09-11 06:59:00,,0828.8,5.00,0.00,29.4,27.5,00.0,38.5,31.1,10.9,0001.2,0023.57,0011.82,0010.41
